Hourly Weather Dziadkowo

Today, 9 May, Sunday

Time Temperature Precipitation Wind Pressure Humidity
00:00 +3°C° 0 mm 3 mps 754 mmHg 78%
01:00 +3°C° 0 mm 3 mps 754 mmHg 81%
02:00 +3°C° 0 mm 4 mps 754 mmHg 79%
03:00 +4°C° 0 mm 4 mps 753 mmHg 78%
04:00 +3°C° 0 mm 5 mps 753 mmHg 76%
05:00 +5°C° 0 mm 5 mps 753 mmHg 74%
06:00 +6°C° 0 mm 5 mps 752 mmHg 73%
07:00 +7°C° 0 mm 5 mps 752 mmHg 71%
08:00 +9°C° 0 mm 5 mps 752 mmHg 69%
09:00 +10°C° 0 mm 5 mps 752 mmHg 67%
10:00 +13°C° 0 mm 6 mps 752 mmHg 65%
11:00 +15°C° 0 mm 6 mps 752 mmHg 63%
12:00 +16°C° 0 mm 6 mps 752 mmHg 60%
13:00 +19°C° 0 mm 6 mps 751 mmHg 58%
14:00 +19°C° 0 mm 6 mps 751 mmHg 61%
15:00 +20°C° 0 mm 5 mps 751 mmHg 63%
16:00 +20°C° 0 mm 5 mps 751 mmHg 65%
17:00 +19°C° 0 mm 4 mps 751 mmHg 71%
18:00 +17°C° 0 mm 4 mps 751 mmHg 77%
19:00 +15°C° 0 mm 4 mps 751 mmHg 84%
20:00 +14°C° 0 mm 4 mps 751 mmHg 86%
21:00 +13°C° 0 mm 4 mps 751 mmHg 88%
22:00 +12°C° 0 mm 4 mps 751 mmHg 90%
23:00 +11°C° 0 mm 4 mps 751 mmHg 88%

Tomorrow, 10 May, Monday

Time Temperature Precipitation Wind Pressure Humidity
00:00 +10°C° 0 mm 4 mps 751 mmHg 86%
01:00 +10°C° 0 mm 4 mps 751 mmHg 84%
02:00 +8°C° 0 mm 4 mps 751 mmHg 81%
03:00 +8°C° 0 mm 4 mps 750 mmHg 78%
04:00 +8°C° 0 mm 4 mps 750 mmHg 75%
05:00 +9°C° 0 mm 5 mps 750 mmHg 74%
06:00 +12°C° 0 mm 5 mps 750 mmHg 72%
07:00 +13°C° 0 mm 6 mps 750 mmHg 71%
08:00 +15°C° 0 mm 6 mps 750 mmHg 67%
09:00 +17°C° 0 mm 7 mps 750 mmHg 62%
10:00 +20°C° 0 mm 7 mps 750 mmHg 57%
11:00 +21°C° 0 mm 8 mps 750 mmHg 57%
12:00 +22°C° 0 mm 8 mps 750 mmHg 57%
13:00 +23°C° 0 mm 8 mps 749 mmHg 57%
14:00 +23°C° 0 mm 7 mps 749 mmHg 59%
15:00 +22°C° 0 mm 6 mps 749 mmHg 62%
16:00 +22°C° 0 mm 6 mps 749 mmHg 64%
17:00 +21°C° 0 mm 5 mps 749 mmHg 70%
18:00 +19°C° 0 mm 4 mps 750 mmHg 76%
19:00 +18°C° 0 mm 3 mps 750 mmHg 82%
20:00 +17°C° 0 mm 3 mps 750 mmHg 85%
21:00 +16°C° 0 mm 3 mps 750 mmHg 87%
22:00 +14°C° 0 mm 3 mps 750 mmHg 90%
23:00 +14°C° 0 mm 3 mps 750 mmHg 91%

Day after tomorrow, 11 May, Tuesday

Time Temperature Precipitation Wind Pressure Humidity
00:00 +13°C° 0 mm 3 mps 750 mmHg 91%
01:00 +13°C° 0 mm 4 mps 750 mmHg 92%
02:00 +13°C° 0 mm 4 mps 749 mmHg 92%
03:00 +12°C° 0 mm 4 mps 749 mmHg 92%
04:00 +12°C° 0 mm 4 mps 749 mmHg 91%
05:00 +13°C° 0 mm 5 mps 749 mmHg 87%
06:00 +15°C° 0 mm 5 mps 748 mmHg 83%
07:00 +16°C° 0 mm 6 mps 748 mmHg 79%
08:00 +19°C° 0 mm 6 mps 748 mmHg 74%
09:00 +20°C° 0 mm 7 mps 748 mmHg 69%
10:00 +22°C° 0 mm 7 mps 748 mmHg 64%
11:00 +23°C° 0 mm 7 mps 747 mmHg 62%
12:00 +24°C° 0 mm 7 mps 747 mmHg 60%
13:00 +26°C° 0 mm 7 mps 747 mmHg 58%
14:00 +26°C° 0 mm 7 mps 747 mmHg 60%
15:00 +26°C° 0 mm 7 mps 747 mmHg 62%
16:00 +26°C° 0 mm 7 mps 746 mmHg 64%
17:00 +23°C° 0 mm 6 mps 746 mmHg 70%
18:00 +22°C° 0 mm 5 mps 747 mmHg 75%
19:00 +20°C° 0 mm 4 mps 747 mmHg 81%
20:00 +19°C° 0 mm 4 mps 747 mmHg 82%
21:00 +19°C° 0 mm 5 mps 747 mmHg 83%
22:00 +17°C° 0 mm 6 mps 747 mmHg 84%
23:00 +16°C° 0 mm 6 mps 747 mmHg 83%

12 May, Wednesday

Time Temperature Precipitation Wind Pressure Humidity
00:00 +15°C° 0 mm 6 mps 747 mmHg 82%
01:00 +14°C° 0 mm 6 mps 747 mmHg 81%
02:00 +14°C° 0 mm 6 mps 746 mmHg 81%
03:00 +13°C° 0 mm 6 mps 746 mmHg 80%
04:00 +11°C° 0 mm 6 mps 746 mmHg 80%
05:00 +13°C° 0 mm 6 mps 746 mmHg 78%
06:00 +13°C° 0 mm 6 mps 746 mmHg 76%
07:00 +12°C° 0 mm 7 mps 746 mmHg 74%
08:00 +15°C° 0 mm 7 mps 746 mmHg 72%
09:00 +16°C° 0 mm 7 mps 746 mmHg 69%
10:00 +18°C° 0 mm 7 mps 746 mmHg 66%
11:00 +20°C° 0 mm 7 mps 746 mmHg 64%
12:00 +21°C° 0 mm 7 mps 746 mmHg 63%
13:00 +22°C° 0 mm 7 mps 746 mmHg 61%
14:00 +22°C° 0 mm 7 mps 746 mmHg 63%
15:00 +23°C° 0 mm 7 mps 745 mmHg 64%
16:00 +23°C° 0 mm 7 mps 745 mmHg 66%
17:00 +21°C° 0 mm 7 mps 745 mmHg 68%
18:00 +18°C° 0 mm 7 mps 745 mmHg 70%
19:00 +17°C° 0 mm 7 mps 745 mmHg 72%
20:00 +16°C° 0 mm 6 mps 746 mmHg 72%
21:00 +15°C° 0 mm 6 mps 746 mmHg 73%
22:00 +14°C° 0 mm 5 mps 746 mmHg 73%
23:00 +12°C° 0 mm 5 mps 746 mmHg 78%

13 May, Thursday

Time Temperature Precipitation Wind Pressure Humidity
00:00 +11°C° 0 mm 4 mps 746 mmHg 83%
01:00 +10°C° 0 mm 4 mps 746 mmHg 87%
02:00 +10°C° 0 mm 4 mps 746 mmHg 88%
03:00 +8°C° 0 mm 4 mps 746 mmHg 89%
04:00 +8°C° 0 mm 4 mps 746 mmHg 90%
05:00 +10°C° 0 mm 4 mps 746 mmHg 87%
06:00 +10°C° 0 mm 5 mps 746 mmHg 83%
07:00 +12°C° 0 mm 5 mps 746 mmHg 79%
08:00 +13°C° 0 mm 5 mps 746 mmHg 74%
09:00 +14°C° 0 mm 5 mps 746 mmHg 70%
10:00 +15°C° 0 mm 5 mps 746 mmHg 66%
11:00 +15°C° 0 mm 5 mps 746 mmHg 65%
12:00 +17°C° 0 mm 4 mps 745 mmHg 63%
13:00 +17°C° 0 mm 4 mps 745 mmHg 62%
14:00 +15°C° 0 mm 4 mps 745 mmHg 65%
15:00 +15°C° 0 mm 4 mps 745 mmHg 68%
16:00 +14°C° 0 mm 4 mps 745 mmHg 70%
17:00 +14°C° 0 mm 4 mps 745 mmHg 74%
18:00 +13°C° 0 mm 3 mps 745 mmHg 77%
19:00 +13°C° 0 mm 2 mps 745 mmHg 80%
20:00 +12°C° 0 mm 2 mps 745 mmHg 83%
21:00 +10°C° 0 mm 2 mps 745 mmHg 85%
22:00 +10°C° 0 mm 1 mps 745 mmHg 88%
23:00 +9°C° 0 mm 1 mps 745 mmHg 88%

14 May, Friday

Time Temperature Precipitation Wind Pressure Humidity
00:00 +9°C° 0 mm 1 mps 745 mmHg 88%
01:00 +8°C° 0 mm 0 mps 745 mmHg 88%
02:00 +8°C° 0 mm 0 mps 745 mmHg 89%
03:00 +7°C° 0 mm 0 mps 745 mmHg 89%
04:00 +7°C° 0 mm 0 mps 745 mmHg 89%
05:00 +10°C° 0 mm 1 mps 745 mmHg 85%
06:00 +11°C° 0 mm 1 mps 745 mmHg 81%
07:00 +13°C° 0 mm 1 mps 745 mmHg 76%
08:00 +14°C° 0 mm 1 mps 745 mmHg 72%
09:00 +15°C° 0 mm 2 mps 745 mmHg 68%
10:00 +16°C° 0 mm 2 mps 745 mmHg 64%
11:00 +17°C° 0.2 mm 2 mps 745 mmHg 64%
12:00 +17°C° 0.2 mm 3 mps 745 mmHg 63%
13:00 +18°C° 0.2 mm 3 mps 745 mmHg 63%
14:00 +18°C° 0.2 mm 3 mps 746 mmHg 64%
15:00 +18°C° 0.2 mm 3 mps 746 mmHg 64%
16:00 +18°C° 0.2 mm 3 mps 746 mmHg 65%
17:00 +16°C° 0.3 mm 3 mps 746 mmHg 72%
18:00 +14°C° 0.3 mm 3 mps 746 mmHg 79%
19:00 +13°C° 0.3 mm 3 mps 746 mmHg 86%
20:00 +12°C° 0 mm 3 mps 746 mmHg 89%
21:00 +11°C° 0 mm 3 mps 747 mmHg 92%
22:00 +10°C° 0 mm 3 mps 747 mmHg 94%
23:00 +10°C° 0 mm 3 mps 747 mmHg 95%
Show more